Home   Weather   Akron   Past weeks

Flag for USA Past Weather in Akron, Ohio, USA — Yesterday and Last 2 Weeks

48 °F

Partly sunny.

Feels Like: 42 °F
Forecast: 44 / 49 °F
Wind: 15 mph from Northwest

Location: Akron Fulton International Airport

Current Time: Oct 22, 2016 at 5:31:31 PM

Latest Report: Oct 22, 2016 at 4:54 PM

Visibility: 10 mi

Pressure: 29.96 "Hg

Humidity: 56%

Dew Point: 33 °F

Location of AkronLocation

Past Weather in Akron — Graph


Akron Temperature Yesterday

Maximum temperature yesterday: 56 °F (at 12:54 AM)
Minimum temperature yesterday: 47 °F (at 11:54 PM)
Average temperature yesterday: 53 °F

High & Low Weather Summary for the Past Weeks

High81 °F (Oct 17, 3:54 PM)96% (Oct 14, 6:02 AM)30.47 "Hg (Oct 14, 6:02 AM)
Low35 °F (Oct 14, 4:54 AM)37% (Oct 8, 4:54 PM)29.73 "Hg (Oct 18, 1:54 PM)
Average59 °F71%30.10 "Hg
* Reported Oct 7 3:54 PM — Oct 22 3:54 PM, Akron, Weather by CustomWeather, © 2016

Note: Actual official high and low records may vary slightly from our data, if they occured in-between our weather recording intervals... More about our weather records


Akron Weather History for the Previous 24 Hours

Scroll right to see more
Time TempWeatherWind HumidityBarometerVisibility
3:54 PM
Sat, Oct 22
48 °FOvercast.14 mph56%29.96 "Hg10 mi
2:54 PM48 °FOvercast.16 mph56%29.96 "Hg10 mi
1:54 PM46 °FMostly cloudy.13 mph61%29.96 "Hg10 mi
12:54 PM47 °FPartly sunny.16 mph64%29.96 "Hg10 mi
11:54 AM47 °FOvercast.13 mph66%29.96 "Hg10 mi
10:54 AM46 °FLight rain. Mostly cloudy.15 mph71%29.95 "Hg10 mi
9:54 AM45 °FLight rain. Mostly cloudy.13 mph74%29.94 "Hg10 mi
8:54 AM44 °FLight rain. Overcast.10 mph79%29.93 "Hg10 mi
7:54 AM44 °FLight rain. Overcast.9 mph79%29.92 "Hg10 mi
6:54 AM44 °FLight rain. Mostly cloudy.14 mph82%29.92 "Hg10 mi
5:54 AM43 °FLight rain. Passing clouds.9 mph86%29.92 "Hg10 mi
5:01 AM44 °FOvercast.8 mph85%29.91 "Hg10 mi
3:54 AM44 °FLight rain. Mostly cloudy.10 mph85%29.92 "Hg10 mi
2:54 AM44 °FLight rain. Partly cloudy.8 mph85%29.93 "Hg10 mi
1:54 AM45 °FMostly cloudy.8 mph82%29.93 "Hg10 mi
12:54 AM46 °FLight rain. Mostly cloudy.12 mph86%29.93 "Hg8 mi
11:54 PM
Fri, Oct 21
47 °FLight rain. Overcast.7 mph86%29.92 "Hg10 mi
10:54 PM48 °FLight rain. Mostly cloudy.10 mph80%29.93 "Hg10 mi
9:54 PM49 °FLight rain. Overcast.10 mph80%29.93 "Hg10 mi
8:54 PM49 °FLight rain. Overcast.13 mph84%29.93 "Hg5 mi
7:54 PM50 °FLight rain. Overcast.14 mph83%29.92 "Hg10 mi
6:54 PM51 °FMostly cloudy.12 mph86%29.90 "Hg10 mi
5:54 PM52 °FLight rain. Overcast.13 mph86%29.89 "Hg9 mi
Weather by CustomWeather, © 2016

See weather overviewHow to use our weather pages